Toronto Pearson, Ontario

8:03 PM EST on December 06, 2019 (GMT -0500)
Toronto-Pearson International

Weather History for CYYZ - May, 2019

Change the Weather History Date:

Friday, May 10, 2019

  Actual Average Record
Temperature  
Mean Temperature 52 °F -  
Max Temperature 62 °F 68 °F 80 °F (2004)
Min Temperature 42 °F 46 °F 37 °F (2016)
Degree Days  
Heating Degree Days 12    
Growing Degree Days 2 (Base 50)    
Moisture  
Dew Point 52 °F    
Average Humidity 86    
Maximum Humidity 100    
Minimum Humidity 52    
Precipitation  
Precipitation 0.28 in 0.09 in - ()
Sea Level Pressure  
Sea Level Pressure 29.86 in    
Wind  
Wind Speed 11 mph ()    
Max Wind Speed 25 mph    
Max Gust Speed 31 mph    
Visibility 8.5 miles    
Events Rain    
Averages and records for this station are not official NWS values.
T = Trace of Precipitation, MM = Missing Value Source: Averaged Metar Reports

Daily Weather History Graph

Daily Weather History Graph

Search for Another Location

Airport or City:

Astronomy

May. 10, 2019 Rise Set
Actual Time 5:59 AM EDT 8:31 PM EDT
Civil Twilight 5:26 AM EDT 9:03 PM EDT
Nautical Twilight 4:46 AM EDT 9:44 PM EDT
Astronomical Twilight 4:00 AM EDT 10:30 PM EDT
Moon 10:55 AM EDT (5/10) 1:25 AM EDT (5/10)
Length of Visible Light 15h 36m
Length of Day
14h 31m
Waxing Crescent, 35% of the Moon is Illuminated
May 10
Waxing Crescent
May 11
First Quarter
May 18
Full
May 26
Last Quarter
Jun 3
New

Hourly Weather History & Observations

Time (EDT) Temp. Windchill Dew Point Humidity Pressure Visibility Wind Dir Wind Speed Gust Speed Precip Events Conditions
12:00 AM 60.8 °F - 59.0 °F 94% 29.80 in 7.0 mi SSE 8.1 mph 17.3 mph N/A Rain Light Rain
12:12 AM 60.8 °F - 59.0 °F 94% 29.80 in 7.0 mi SSE 8.1 mph 19.6 mph N/A Rain Light Rain
12:24 AM 60.8 °F - 59.0 °F 94% 29.80 in 6.0 mi SSE 12.7 mph 23.0 mph N/A Rain Light Rain
12:46 AM 59.0 °F - 59.0 °F 100% 29.80 in 5.0 mi SSE 9.2 mph 18.4 mph N/A Rain Light Rain
1:00 AM 59.0 °F - 59.0 °F 100% 29.79 in 5.0 mi SSE 9.2 mph 19.6 mph N/A Rain Light Rain
1:08 AM 59.0 °F - 59.0 °F 100% 29.79 in 3.0 mi SSE 11.5 mph 18.4 mph N/A Rain Light Rain
1:25 AM 59.0 °F - 59.0 °F 100% 29.79 in 2.5 mi SSE 11.5 mph 18.4 mph N/A Rain Light Rain
1:38 AM 59.0 °F - 59.0 °F 100% 29.80 in 2.2 mi SSE 10.4 mph - N/A Rain Light Rain
1:52 AM 59.0 °F - 59.0 °F 100% 29.80 in 2.0 mi SSE 10.4 mph - N/A Rain Light Rain
2:00 AM 59 °F - 59 °F 99% 29.80 in 2 mi SE 11.5 mph - - Rain Heavy Rain Showers
2:00 AM 59.0 °F - 59.0 °F 100% 29.80 in 2.0 mi SE 11.5 mph - N/A Rain Heavy Rain Showers
2:20 AM 60.8 °F - 60.8 °F 100% 29.79 in 3.0 mi South 5.8 mph - N/A Rain Light Rain
2:36 AM 60.8 °F - 60.8 °F 100% 29.79 in 4.0 mi SSE 3.5 mph - N/A Rain Light Rain
3:00 AM 60.8 °F - 60.8 °F 100% 29.79 in 5.0 mi SE 12.7 mph - N/A Rain Light Rain
3:24 AM 60.8 °F - 59.0 °F 94% 29.78 in 4.0 mi SE 12.7 mph - N/A   Overcast
3:42 AM 60.8 °F - 60.8 °F 100% 29.77 in 4.0 mi SE 13.8 mph - N/A   Overcast
4:00 AM 59.0 °F - 59.0 °F 100% 29.78 in 4.0 mi SSE 16.1 mph - N/A   Overcast
4:29 AM 59.0 °F - 59.0 °F 100% 29.76 in 4.0 mi SE 16.1 mph - N/A   Overcast
4:54 AM 60.8 °F - 59.0 °F 94% 29.77 in 5.0 mi SE 12.7 mph - N/A Rain Light Rain
5:00 AM 60 °F - 60 °F 99% 29.77 in 5 mi SE 12.7 mph - -   Overcast
5:00 AM 60.8 °F - 59.0 °F 94% 29.77 in 5.0 mi SE 12.7 mph - N/A Rain Light Rain
5:21 AM 60.8 °F - 60.8 °F 100% 29.76 in 5.0 mi SSE 13.8 mph - N/A   Overcast
6:00 AM 60.8 °F - 60.8 °F 100% 29.76 in 6.0 mi SSE 11.5 mph - N/A   Overcast
6:04 AM 60.8 °F - 60.8 °F 100% 29.76 in 4.0 mi SSE 13.8 mph - N/A Rain Light Rain
6:14 AM 60.8 °F - 60.8 °F 100% 29.77 in 2.5 mi SSE 8.1 mph - N/A Rain Light Rain
6:18 AM 60.8 °F - 60.8 °F 100% 29.77 in 1.0 mi South 5.8 mph - N/A Rain Light Rain
6:40 AM 60.8 °F - 60.8 °F 100% 29.75 in 3.0 mi SE 13.8 mph - N/A Rain Light Rain
7:00 AM 60.8 °F - 60.8 °F 100% 29.75 in 4.0 mi South 6.9 mph - N/A   Overcast
7:08 AM 60.8 °F - 60.8 °F 100% 29.76 in 6.0 mi SSW 6.9 mph 17.3 mph N/A   Overcast
7:24 AM 62.6 °F - 62.6 °F 100% 29.76 in 8.0 mi SSW 15.0 mph 24.2 mph N/A Rain Light Rain
7:31 AM 60.8 °F - 59.0 °F 94% 29.77 in 8.0 mi West 25.3 mph 31.1 mph N/A Rain Light Rain
8:00 AM 59 °F - 55 °F 81% 29.79 in 10 mi West 19.6 mph - - Rain Light Rain
8:00 AM 59.0 °F - 55.4 °F 88% 29.79 in 10.0 mi West 23.0 mph - N/A   Mostly Cloudy
8:26 AM 59.0 °F - 53.6 °F 82% 29.78 in 12.0 mi West 19.6 mph - N/A   Mostly Cloudy
9:00 AM 59.0 °F - 55.4 °F 88% 29.81 in 15.0 mi WSW 15.0 mph - N/A   Mostly Cloudy
10:00 AM 57.2 °F - 50.0 °F 77% 29.83 in 15.0 mi WSW 17.3 mph 26.5 mph N/A   Mostly Cloudy
11:00 AM 57 °F - 49 °F 66% 29.86 in 15 mi Calm Calm - -  
12:00 PM 53.6 °F - 44.6 °F 72% 29.90 in 15.0 mi West 15.0 mph 24.2 mph N/A   Overcast
1:00 PM 53.6 °F - 44.6 °F 72% 29.92 in 15.0 mi WNW 20.7 mph - N/A   Overcast
2:00 PM 52 °F - 42 °F 60% 29.94 in 15 mi West 17.3 mph - -   Overcast
2:00 PM 51.8 °F - 42.8 °F 71% 29.94 in 15.0 mi West 15.0 mph 26.5 mph N/A   Overcast
3:00 PM 51.8 °F - 41.0 °F 67% 29.97 in 15.0 mi WNW 19.6 mph - N/A   Overcast
4:00 PM 51.8 °F - 41.0 °F 67% 29.99 in 15.0 mi WNW 18.4 mph - N/A   Mostly Cloudy
5:00 PM 50 °F - 38 °F 52% 30.01 in 15 mi WNW 19.6 mph - -  
5:00 PM 50.0 °F - 37.4 °F 62% 30.01 in 15.0 mi WNW 20.7 mph 27.6 mph N/A   Mostly Cloudy
6:00 PM 48.2 °F - 35.6 °F 62% 30.04 in 15.0 mi NW 16.1 mph - N/A   Mostly Cloudy
7:00 PM 46.4 °F 39.2 °F 35.6 °F 66% 30.05 in 15.0 mi NW 18.4 mph - N/A   Overcast
8:00 PM 46 °F - 35 °F 56% 30.07 in 15 mi WNW 15.0 mph - -   Overcast
8:00 PM 46.4 °F 40.4 °F 35.6 °F 66% 30.07 in 15.0 mi WNW 13.8 mph - N/A   Overcast
9:00 PM 46.4 °F 40.4 °F 33.8 °F 62% 30.11 in 15.0 mi WNW 13.8 mph 21.9 mph N/A   Mostly Cloudy
10:00 PM 44.6 °F 39.2 °F 33.8 °F 66% 30.12 in 15.0 mi NW 10.4 mph - N/A   Partly Cloudy
11:00 PM 43 °F - 34 °F 60% 30.11 in 15 mi NW 9.2 mph - -  
11:00 PM 42.8 °F 37.5 °F 33.8 °F 70% 30.11 in 15.0 mi NW 9.2 mph - N/A   Clear